Wind_Speed
8 8 7 6 6 6 6 6 7 7 7 8 9 9 9 10 10 10 10 10 9 9 9 8 8 8 7 7 7 6 6 7 7 7 7 7 7 8 8 9 9 10 10
8 8 7 6 6 5 5 6 6 6 7 7 8 8 8 9 9 9 9 9 9 9 8 8 7 7 7 6 6 5 5 5 5 5 6 6 6 7 7 8 8 9 9
7 7 7 7 6 6 6 6 6 6 6 7 7 8 8 8 8 8 8 8 9 9 8 8 7 7 6 6 5 4 4 4 3 4 4 4 5 5 6 6 7 8 8
7 7 7 6 6 6 6 6 6 6 6 7 7 7 7 7 7 7 8 8 8 8 8 8 8 7 7 6 5 4 4 3 3 2 2 2 3 4 4 5 6 7 7
7 6 6 5 5 5 6 6 6 6 7 7 7 8 8 8 8 8 8 8 9 9 9 9 8 8 8 7 6 5 5 4 3 2 1 0 1 2 3 4 5 6 6
6 6 6 6 6 6 6 7 7 8 7 8 8 8 9 9 9 9 9 9 10 10 10 10 10 10 10 9 8 7 6 6 5 4 3 2 2 2 3 4 5 5 6
6 6 7 7 7 8 8 8 9 9 9 9 9 10 10 10 10 10 10 11 11 11 12 12 12 12 11 11 10 9 8 8 8 7 6 5 5 4 4 5 5 5 6
6 6 7 9 9 9 9 10 10 10 11 11 11 11 12 12 12 12 12 12 13 13 13 14 14 14 14 13 13 12 11 10 10 10 9 9 8 7 7 6 6 6 6
7 8 9 10 10 11 11 11 11 12 12 12 13 13 14 15 15 15 15 14 15 15 15 15 16 16 16 16 15 14 13 13 13 13 12 11 11 10 9 9 8 8 7
9 9 10 10 11 12 12 12 12 13 13 13 14 15 16 16 17 17 18 18 18 18 17 18 18 18 18 18 18 17 16 15 15 15 14 14 13 12 12 11 10 10 9
11 11 11 11 11 12 13 13 14 14 15 15 16 17 18 18 18 19 20 20 19 19 19 20 20 20 20 20 20 19 19 19 17 17 16 16 16 15 14 14 13 12 11
14 14 13 13 13 14 14 15 15 16 17 17 18 19 20 20 20 20 21 21 21 21 20 21 21 22 22 22 22 21 21 21 20 19 18 18 18 18 17 16 15 14 13
16 16 16 15 16 16 16 17 17 18 19 20 20 22 22 22 23 23 23 23 23 23 23 23 24 24 24 23 24 24 24 23 23 22 20 20 20 19 19 19 17 16 16
17 17 18 17 17 18 19 19 20 20 21 22 23 24 25 25 26 24 23 24 25 25 26 26 26 27 26 26 26 26 26 25 25 23 22 22 22 22 21 21 20 18 18
19 19 19 20 20 21 21 21 23 23 23 24 26 26 27 28 27 27 25 26 26 26 27 28 28 28 28 28 26 27 28 27 26 25 25 24 23 24 23 22 22 21 20
20 19 20 20 21 23 23 23 24 25 25 27 28 28 28 28 28 28 28 28 28 28 28 28 29 29 29 28 27 28 29 29 28 27 27 26 25 25 25 24 24 23 21
21 22 22 23 23 23 25 26 27 28 29 31 31 31 31 30 30 30 30 29 29 29 28 28 29 28 27 26 27 28 28 29 29 28 28 28 27 26 25 25 25 23 23
23 23 24 24 25 25 26 27 29 30 32 32 33 33 33 32 32 32 31 31 31 30 30 29 30 28 28 27 27 28 29 29 29 29 29 28 27 26 26 26 25 24 23
23 23 23 24 25 25 27 28 29 31 32 33 34 34 35 34 34 33 32 32 32 31 31 31 31 28 27 27 28 28 29 29 30 30 29 28 28 27 27 26 26 26 24
23 23 24 25 26 27 29 30 31 32 34 35 35 36 36 36 36 35 34 33 33 32 31 31 30 28 28 27 27 27 28 29 30 30 29 29 29 28 28 27 26 26 25
22 23 25 26 28 29 30 31 32 34 35 35 36 36 36 37 36 35 35 34 33 32 32 31 29 28 28 27 27 28 28 28 29 30 30 30 29 29 28 28 27 26 25
23 24 25 26 28 29 31 32 34 35 35 35 35 36 36 37 36 36 36 35 35 34 33 32 30 29 28 29 28 27 27 28 29 30 30 30 30 29 29 28 28 27 27
22 24 25 26 28 30 31 33 34 35 35 36 36 37 37 38 38 38 38 37 36 36 35 33 32 30 29 29 28 28 26 27 29 30 31 31 32 30 30 30 30 29 28
21 23 25 27 29 31 32 34 35 36 37 38 38 38 38 39 39 39 39 39 38 37 37 35 34 33 31 30 29 29 29 29 29 31 32 32 32 32 31 31 31 31 30
21 23 25 27 29 31 33 35 36 38 39 39 40 40 40 40 39 39 39 39 39 38 38 37 36 35 34 32 31 31 31 29 30 31 33 34 33 33 32 33 33 32 31
21 24 26 27 29 31 33 35 37 38 39 39 40 40 40 40 40 39 39 39 39 38 38 38 37 37 36 35 34 33 33 33 32 32 35 36 35 34 35 35 35 34 33
Wind_Direction
340 339 340 341 346 351 352 353 357 2 7 9 9 8 7 6 5 4 3 4 4 6 9 13 18 19 23 29 36 42 48 55 65 75 82 87 91 94 98 103 107 109 111
339 339 337 334 336 340 343 345 350 355 1 4 4 2 1 360 358 357 355 354 354 354 357 359 3 6 9 14 21 30 37 45 56 70 80 86 91 94 97 102 107 110 110
341 338 335 331 331 332 334 335 341 347 350 352 353 353 351 350 350 348 347 345 343 343 344 346 347 349 352 355 360 8 18 25 36 53 68 81 89 95 100 103 106 111 113
343 336 332 331 330 329 328 329 333 336 337 337 338 340 340 338 338 336 335 334 333 332 331 331 330 331 331 334 336 339 343 350 360 20 47 77 93 103 110 112 112 115 120
334 329 326 324 322 320 320 320 323 325 326 327 326 326 326 326 325 323 322 322 321 319 318 318 316 315 314 313 313 313 313 312 313 322 328 32 127 130 137 135 130 128 130
317 314 312 310 308 310 312 311 312 312 313 314 314 313 313 315 316 315 313 312 311 308 307 307 305 304 302 299 296 295 292 289 288 285 278 260 229 208 189 173 159 147 142
305 300 300 300 298 300 302 305 306 306 306 305 304 304 305 306 305 304 303 302 302 302 300 297 295 295 294 289 287 284 279 274 273 271 265 256 242 230 218 203 189 175 162
297 295 293 292 292 294 298 301 301 301 302 302 301 301 299 300 298 296 294 293 292 293 293 290 287 285 285 282 278 276 272 268 264 263 261 255 248 239 231 221 211 200 186
288 288 290 289 290 293 298 301 303 302 299 299 301 300 298 296 295 292 290 290 287 286 285 285 283 281 279 278 275 271 267 264 260 260 258 253 250 244 237 229 222 215 205
279 282 286 290 293 296 298 299 302 302 300 298 298 299 298 297 296 294 290 290 288 285 283 280 279 277 275 274 273 268 264 261 258 257 257 253 250 246 241 236 230 225 217
276 278 283 288 292 295 296 298 302 304 304 304 304 303 300 301 300 296 293 291 291 288 284 278 275 274 274 271 269 267 263 260 257 254 253 252 251 247 243 240 236 232 227
284 279 280 284 288 290 292 295 300 304 306 306 304 304 303 303 303 300 297 293 290 289 286 280 275 273 271 269 267 265 262 258 256 252 250 249 248 247 243 241 238 236 232
282 287 282 283 286 288 291 294 300 302 303 304 303 303 302 303 302 301 300 295 292 289 286 283 279 273 269 268 267 264 262 258 256 252 248 246 246 246 243 239 237 236 234
279 278 279 280 284 286 288 292 296 298 299 300 301 302 301 301 300 300 300 296 293 290 288 284 283 277 269 266 264 262 259 257 255 252 249 246 244 245 242 239 236 234 234
282 279 277 280 281 283 284 288 290 291 294 296 296 298 299 298 296 297 296 295 293 292 289 284 283 279 271 265 264 261 257 253 252 251 250 246 244 244 240 239 234 234 233
281 281 284 286 286 285 285 285 287 290 291 294 296 297 299 298 296 294 294 290 291 291 289 286 285 283 276 267 262 259 256 252 249 248 245 244 243 242 241 238 234 233 230
286 289 288 290 287 286 289 292 293 296 296 298 298 299 298 297 295 294 293 291 291 290 290 289 288 282 275 269 264 259 255 252 247 246 244 242 242 241 240 236 232 232 230
292 293 292 292 294 293 292 294 296 297 297 298 298 298 297 297 296 294 293 291 291 291 290 289 287 283 276 270 264 258 252 249 247 245 244 243 240 238 236 232 230 229 227
293 295 294 294 295 295 295 295 295 296 296 296 296 297 296 296 296 294 292 291 291 290 289 288 284 281 275 271 262 255 250 249 247 244 242 240 236 235 232 232 229 226 226
294 295 294 294 294 294 295 294 294 294 294 294 294 295 295 295 294 291 289 288 288 288 288 287 282 278 274 268 258 254 252 249 245 241 239 235 233 233 231 229 225 225 224
293 293 294 295 294 294 294 294 294 293 293 293 293 293 293 293 291 289 288 287 286 285 286 285 281 277 272 267 260 256 252 246 243 239 237 232 231 230 230 226 223 222 222
294 295 295 296 297 297 295 295 295 295 294 294 293 292 292 291 290 288 287 286 285 283 282 281 279 277 273 267 261 257 250 244 243 238 234 231 229 229 226 225 222 222 222
298 299 298 298 298 298 297 297 297 296 296 295 293 291 290 289 288 287 286 284 282 281 279 278 276 274 272 265 260 257 252 247 244 237 233 230 228 227 226 224 223 223 222
302 301 300 300 299 299 298 298 298 297 296 295 294 292 290 289 287 286 284 282 280 278 276 275 273 270 268 264 259 257 255 252 243 235 230 228 228 227 227 225 224 223 223
305 303 302 301 300 298 297 297 296 296 295 294 293 292 290 289 287 285 283 281 278 276 274 272 270 268 264 262 259 257 254 250 244 238 233 228 226 225 226 226 224 223 223
307 306 305 303 301 300 299 298 297 296 295 294 294 293 291 289 288 286 283 280 278 276 273 270 268 265 262 258 256 253 251 248 247 241 233 227 225 225 224 224 223 222 223
Height
5922 5921 5921 5921 5920 5920 5919 5919 5918 5917 5917 5916 5916 5915 5914 5913 5912 5911 5910 5909 5908 5907 5906 5904 5903 5903 5902 5901 5901 5900 5900 5900 5899 5899 5899 5899 5898 5898 5898 5898 5898 5898 5898
5922 5921 5921 5920 5920 5920 5919 5918 5918 5917 5916 5916 5915 5914 5914 5913 5912 5911 5910 5909 5908 5907 5906 5905 5904 5903 5902 5902 5901 5900 5900 5900 5900 5899 5899 5899 5899 5899 5899 5899 5898 5899 5899
5921 5921 5920 5920 5920 5919 5919 5918 5917 5917 5916 5915 5915 5914 5913 5912 5912 5911 5910 5909 5908 5907 5906 5905 5904 5903 5902 5902 5901 5900 5900 5900 5900 5899 5899 5899 5899 5899 5899 5899 5899 5899 5899
5920 5920 5920 5919 5919 5918 5918 5917 5917 5916 5915 5914 5914 5913 5912 5911 5911 5910 5909 5908 5907 5906 5905 5904 5903 5902 5902 5901 5901 5900 5899 5899 5899 5899 5899 5899 5899 5899 5899 5900 5900 5900 5900
5920 5919 5919 5918 5918 5917 5917 5916 5916 5915 5914 5913 5913 5912 5911 5910 5910 5909 5908 5907 5906 5905 5904 5903 5902 5901 5901 5900 5900 5899 5899 5898 5898 5899 5899 5899 5899 5899 5900 5900 5900 5900 5900
5918 5918 5918 5917 5917 5916 5916 5915 5914 5914 5913 5912 5911 5910 5910 5909 5908 5907 5906 5906 5905 5904 5903 5902 5901 5900 5899 5899 5898 5898 5898 5898 5897 5897 5898 5898 5899 5899 5899 5900 5900 5900 5901
5917 5917 5916 5916 5915 5915 5914 5913 5912 5912 5911 5910 5909 5908 5907 5907 5906 5905 5904 5903 5903 5902 5901 5900 5899 5898 5897 5897 5897 5896 5896 5896 5896 5896 5897 5897 5897 5898 5899 5899 5900 5900 5900
5915 5915 5914 5914 5913 5913 5912 5911 5910 5909 5908 5907 5906 5905 5905 5904 5903 5902 5901 5900 5899 5899 5898 5897 5896 5895 5895 5894 5894 5894 5894 5894 5894 5895 5895 5895 5896 5897 5897 5898 5899 5899 5900
5913 5913 5912 5911 5911 5910 5909 5908 5907 5906 5905 5904 5903 5902 5901 5900 5899 5898 5897 5897 5896 5895 5894 5893 5893 5892 5891 5891 5891 5891 5891 5891 5892 5892 5893 5893 5894 5895 5896 5896 5897 5898 5899
5909 5910 5909 5909 5908 5907 5906 5905 5904 5903 5902 5901 5899 5898 5897 5896 5895 5894 5893 5892 5891 5890 5890 5889 5889 5888 5887 5887 5887 5887 5887 5888 5888 5889 5890 5891 5892 5893 5893 5894 5895 5896 5897
5907 5906 5906 5905 5904 5903 5902 5901 5900 5899 5898 5897 5895 5894 5892 5891 5890 5889 5888 5887 5886 5886 5885 5884 5883 5883 5882 5882 5882 5882 5883 5883 5884 5885 5886 5887 5888 5889 5890 5892 5893 5894 5895
5903 5903 5902 5902 5901 5900 5899 5897 5896 5895 5894 5893 5891 5889 5888 5887 5885 5884 5883 5881 5881 5880 5879 5878 5877 5877 5877 5877 5877 5877 5878 5878 5879 5881 5882 5883 5884 5885 5887 5888 5890 5891 5892
5899 5899 5898 5897 5896 5895 5894 5893 5892 5891 5890 5888 5886 5885 5883 5881 5880 5878 5877 5876 5875 5873 5872 5872 5871 5870 5870 5870 5871 5871 5872 5873 5874 5875 5877 5878 5879 5881 5882 5884 5886 5888 5889
5894 5894 5893 5892 5891 5890 5889 5888 5887 5886 5885 5883 5881 5879 5877 5875 5873 5871 5871 5869 5868 5867 5865 5864 5864 5863 5863 5863 5864 5864 5866 5867 5868 5869 5871 5873 5874 5876 5877 5879 5881 5884 5886
5889 5889 5888 5887 5886 5885 5883 5882 5882 5881 5879 5878 5875 5874 5872 5870 5867 5866 5865 5863 5862 5861 5859 5858 5857 5856 5855 5855 5856 5857 5858 5860 5862 5863 5865 5867 5868 5870 5873 5875 5877 5879 5881
5883 5884 5883 5881 5879 5878 5876 5875 5875 5873 5873 5872 5869 5867 5865 5863 5862 5860 5858 5856 5855 5853 5852 5851 5849 5848 5848 5848 5848 5850 5851 5853 5855 5857 5859 5861 5863 5865 5867 5870 5872 5874 5877
5878 5878 5876 5874 5872 5871 5870 5869 5868 5866 5865 5863 5862 5860 5858 5856 5854 5853 5851 5849 5848 5846 5844 5843 5842 5841 5840 5841 5841 5842 5844 5846 5847 5850 5852 5855 5857 5859 5861 5864 5867 5870 5872
5874 5872 5870 5868 5866 5864 5864 5863 5862 5860 5858 5856 5854 5852 5850 5848 5846 5845 5843 5842 5840 5838 5837 5836 5834 5833 5833 5833 5833 5835 5836 5838 5841 5843 5846 5848 5850 5853 5856 5859 5862 5865 5868
5868 5867 5866 5864 5861 5860 5858 5857 5856 5854 5852 5850 5847 5845 5843 5841 5839 5837 5836 5834 5832 5831 5829 5828 5827 5826 5826 5826 5826 5827 5829 5831 5833 5836 5839 5841 5844 5847 5850 5853 5856 5860 5862
5863 5862 5861 5859 5858 5856 5854 5852 5850 5848 5845 5843 5840 5837 5835 5833 5831 5829 5828 5826 5825 5823 5821 5820 5819 5818 5818 5818 5818 5820 5821 5823 5825 5829 5832 5834 5837 5840 5843 5847 5851 5854 5857
5859 5858 5857 5855 5853 5851 5848 5846 5843 5841 5838 5836 5833 5830 5827 5825 5823 5821 5820 5818 5817 5815 5814 5812 5811 5811 5810 5810 5811 5812 5813 5815 5818 5821 5824 5828 5831 5834 5837 5841 5845 5848 5851
5855 5853 5851 5849 5846 5844 5841 5839 5836 5833 5830 5827 5825 5822 5819 5817 5814 5812 5811 5809 5808 5807 5805 5804 5803 5803 5803 5803 5804 5804 5806 5809 5811 5813 5817 5821 5825 5828 5831 5835 5839 5843 5846
5851 5848 5846 5843 5840 5837 5834 5831 5828 5824 5821 5818 5816 5813 5810 5808 5805 5803 5801 5800 5799 5798 5797 5796 5796 5796 5796 5795 5796 5797 5799 5801 5803 5806 5810 5814 5817 5821 5825 5828 5833 5837 5840
5847 5844 5841 5837 5834 5830 5827 5823 5820 5816 5812 5809 5806 5803 5800 5798 5795 5793 5791 5790 5789 5788 5787 5787 5787 5787 5787 5788 5788 5790 5791 5793 5796 5799 5802 5806 5810 5814 5818 5822 5826 5831 5834
5842 5839 5835 5832 5828 5824 5820 5816 5812 5808 5803 5800 5796 5793 5790 5787 5785 5782 5780 5778 5777 5777 5776 5776 5776 5777 5778 5779 5780 5781 5783 5785 5787 5791 5795 5798 5802 5807 5811 5815 5819 5824 5828
5838 5834 5830 5826 5821 5817 5812 5808 5803 5799 5794 5790 5786 5782 5779 5775 5773 5771 5769 5767 5766 5765 5765 5765 5765 5766 5767 5769 5771 5772 5774 5776 5779 5782 5787 5790 5794 5799 5803 5807 5812 5816 5821